STARLINK-34720

Last updated on Fri Dec 12 2025 00:02:05 GMT+0000 (Coordinated Universal Time)

1 66449U 25259AD 25345.58335648 -.02009914 00000+0 -43475-1 0 9993 2 66449 43.0013 53.9974 0001024 274.7358 47.0232 15.47065084 5982

Satellite not in orbit